Date,TemperatureHighF,TemperatureAvgF,TemperatureLowF,DewpointHighF,DewpointAvgF,DewpointLowF,HumidityHigh,HumidityAvg,HumidityLow,PressureMaxIn,PressureMinIn,WindSpeedMaxMPH,WindSpeedAvgMPH,GustSpeedMaxMPH,PrecipitationSumIn
2013-10-8,55.9,52.4,50.3,48.8,48.1,46.8,91,85,76,30.16,30.14,0,0,0,0.01
2013-10-9,76.2,63.3,49.2,61.5,55.3,46.4,96,77,54,30.16,30.09,2,0,4,0.00
2013-10-10,76.2,61.9,51.4,62.4,56.7,50.6,98,85,57,30.16,30.03,4,0,8,0.00
2013-10-11,78.2,62.0,50.0,60.6,55.4,49.2,98,82,50,30.08,29.98,3,0,5,0.00
2013-10-12,77.7,64.1,52.7,66.9,59.0,51.6,97,85,58,30.09,30.00,5,1,9,0.01
2013-10-13,74.0,64.3,55.8,62.8,55.1,46.3,97,74,44,30.28,30.10,4,1,8,0.00
2013-10-14,70.3,58.1,48.0,56.6,49.5,43.5,93,74,52,30.30,30.12,6,2,9,0.00
2013-10-15,68.3,61.7,53.4,64.7,59.3,51.2,96,92,85,30.13,29.90,5,1,10,0.07
2013-10-16,64.4,57.7,48.4,63.6,53.5,46.3,98,87,63,29.97,29.86,5,1,11,0.37
2013-10-17,57.5,49.1,42.8,50.7,46.3,41.5,98,90,75,29.98,29.90,5,1,7,0.15
2013-10-18,66.2,53.0,42.0,53.2,46.8,41.2,98,81,52,30.03,29.92,6,1,10,0.01
2013-10-19,54.7,48.2,41.8,47.4,43.8,38.3,96,86,58,30.01,29.83,5,1,9,0.20
2013-10-20,62.4,50.1,39.6,47.7,42.6,37.8,95,77,54,30.04,29.96,7,2,14,0.00
2013-10-21,63.1,53.4,46.7,51.7,46.3,39.2,90,77,63,30.00,29.91,6,2,11,0.02
2013-10-22,51.8,43.6,32.5,44.1,38.2,31.0,95,82,61,30.04,29.79,2,0,6,0.03
2013-10-23,48.0,43.1,39.0,44.2,37.5,33.6,92,81,62,30.09,29.78,6,2,15,0.00
2013-10-24,42.3,39.1,33.6,37.9,33.1,26.5,94,80,54,30.33,30.08,6,1,12,0.03
2013-10-25,49.7,36.8,26.9,35.3,29.3,25.0,94,77,44,30.50,30.30,3,1,8,0.00
2013-10-26,58.7,44.1,29.8,44.4,35.4,27.8,93,72,55,30.30,29.96,8,2,15,0.00
2013-10-27,59.7,44.8,32.0,42.0,35.8,30.5,96,73,42,30.11,30.02,2,0,5,0.00
2013-10-28,66.1,47.7,33.6,43.4,37.2,32.3,97,72,33,30.26,30.07,5,0,8,0.00
2013-10-29,57.7,49.2,39.8,54.3,45.5,36.1,97,87,80,30.30,30.13,5,1,8,0.02
2013-10-30,70.5,63.2,55.1,66.8,61.5,54.3,99,94,84,30.13,29.96,5,1,7,0.07
2013-10-31,66.8,63.6,57.0,65.3,60.9,55.0,97,91,79,29.96,29.36,10,5,19,0.01